User: anonymous   Login
Location: Unspecified
(0.0000°N, 0.0000°E)
Time: 14:14:20
(UTC+00:00)
Language:

OPTOS - Orbit

View from above orbital plane
View from above orbital plane
View from above satellite
View from above satellite

Ground track
Ground track

The orbit data is extracted from the following two-line orbital elements,

1 39429U 13066P   18267.85995096 +.00000308 +00000-0 +63022-4 0  9996
2 39429 097.7008 240.9457 0147157 004.9028 355.3603 14.60814112257949
Epoch (UTC): 24 September 2018 20:38:19
Eccentricity: 0.0147157
inclination: 97.7008°
perigee height: 586 km
apogee height: 794 km
right ascension of ascending node: 240.9457°
argument of perigee: 4.9028°
revolutions per day: 14.60814112
mean anomaly at epoch: 355.3603°
orbit number at epoch: 25794

The dashed part of the orbit path shows where the satellite is in the earth's shadow,  

DLR